Regional Weather Roundup
Issued by NWS

Home | Current Version | Previous Version | Graphics & Text | Print | Product List | Glossary Off
Versions: 1 2 3 4 5 6 7 8 9 10 11 12 13 14 15 16 17 18 19 20 21 22 23 24 25 26 27 28 29 30 31 32 33 34 35 36 37 38 39 40 41 42 43 44 45 46 47 48 49 50

000
ASUS43 KTOP 251659
RWRKS

WEATHER ROUNDUP FOR KANSAS
NATIONAL WEATHER SERVICE GOODLAND KS
1200 PM CDT SAT APR 25 2015

NOTE:  "FAIR" INDICATES FEW OR NO CLOUDS BELOW 12,000 FEET WITH NO
SIGNIFICANT WEATHER AND/OR OBSTRUCTIONS TO VISIBILITY.

KSZ001>006-013>018-027>032-041>047-251800-
NORTHWEST KANSAS

CITY           SKY/WX    TMP DP  RH WIND       PRES   REMARKS
GOODLAND       SUNNY     64  47  53 N14       29.72S
HAYS           SUNNY     66  50  55 NW14G21   29.65R
HILL CITY      SUNNY     66  52  60 N10       29.67R
RUSSELL        PTSUNNY   66  54  65 N16G22    29.63R
$$

KSZ061>065-074>080-084>089-251800-
SOUTHWEST KANSAS

CITY           SKY/WX    TMP DP  RH WIND       PRES   REMARKS
DODGE CITY     SUNNY     73  43  33 N12G20    29.67R
ELKHART          N/A     74  35  24 NE7         N/A
GARDEN CITY    SUNNY     70  43  37 N13       29.69R
GREAT BEND     MOSUNNY   66  54  63 NW12      29.64S
LIBERAL        SUNNY     73  41  31 NW15      29.73R
$$

KSZ066>073-081>083-090>101-251800-
SOUTHEAST KANSAS

CITY           SKY/WX    TMP DP  RH WIND       PRES   REMARKS
CHANUTE        PTSUNNY   72  54  53 W21G33    29.55R
COFFEYVILLE    SUNNY     73  52  47 W17G30    29.57S
HUTCHINSON     SUNNY     71  52  50 W20       29.61R
MEDICINE LODGE   N/A     74  49  41 N12       29.63S
NEWTON         MOSUNNY   66  52  59 NW20      29.63R
PARSONS        SUNNY     73  54  51 W14G28    29.58R
WICHITA INTL   MOSUNNY   72  51  47 NW22      29.61R
WICHITA JABRA  MOSUNNY   71  52  50 NW18      29.61R
WINFIELD       SUNNY     73  52  47 W17       29.62R
$$

KSZ007>012-019>026-033>040-048>060-102>105-251800-
NORTHEAST KANSAS

CITY           SKY/WX    TMP DP  RH WIND       PRES   REMARKS
CONCORDIA      CLOUDY    56  52  86 N14       29.63R
EMPORIA        CLOUDY    63  54  72 W21G26    29.56R
LAWRENCE       LGT RAIN  60  56  86 W12       29.47R
MANHATTAN      CLOUDY    60  55  83 N12G22    29.58R
OLATHE IND     LGT RAIN  59  57  93 SW10      29.49S
OLATHE EXE     LGT RAIN  59  57  93 SW8G20    29.48R FOG
SALINA         PTSUNNY   65  54  67 NW18      29.61R
TOPEKA BILLARD CLOUDY    62  56  80 NW15G23   29.51R
TOPEKA FORBES  CLOUDY    63  56  78 NW23      29.50R
$$


USA.gov is the U.S. government's official web portal to all federal, state and local government web resources and services.